This demonstration page uses our WeatherBlox Daily Observations layout. Learn more.

Left ArrowRight Arrow

34.16533, -84.80231

Hourly Observations for March 30, 2020

Temp ( °F °C ) Dew Point ( °F °C ) Humidity (%) Winds ( mph kmh ) Pressure ( in mb ) Visibility ( mi km ) Precip ( " mm )
12:53 am 00:53 Clear 61 16.1 51 10.6 70 70 Calm 30.12 1020 10 16 0.00 0.00
1:53 am 01:53 Clear 61 16.1 50 10 67 67 Calm 30.11 1020 10 16 0.00 0.00
2:53 am 02:53 Clear 61 16.1 49 9.4 65 65 Calm 30.10 1019 10 16 0.00 0.00
3:53 am 03:53 Clear 60 15.6 48 8.9 65 65 Calm 30.13 1020 10 16 0.00 0.00
4:53 am 04:53 Clear 60 15.6 47 8.3 62 62 Calm 30.11 1020 10 16 0.00 0.00
5:53 am 05:53 Clear 59 15 47 8.3 64 64 Calm 30.14 1021 10 16 0.00 0.00
6:53 am 06:53 Clear 57 13.9 44 6.7 62 62 Calm 30.14 1021 10 16 0.00 0.00
7:53 am 07:53 Sunny 58 14.4 43 6.1 58 58 Calm 30.16 1021 10 16 0.00 0.00
8:53 am 08:53 Sunny 63 17.2 45 7.2 52 52 Calm 30.17 1022 10 16 0.00 0.00
9:53 am 09:53 Sunny 65 18.3 41 5 42 42 Calm 30.18 1022 10 16 0.00 0.00
10:53 am 10:53 Sunny 68 20 39 3.9 35 35 N 9 15 30.16 1021 10 16 0.00 0.00
11:53 am 11:53 Sunny 71 21.7 37 2.8 29 29 N 10 17 30.17 1022 10 16 0.00 0.00
12:53 pm 12:53 Sunny 72 22.2 36 2.2 27 27 N 14 22 30.16 1021 10 16 0.00 0.00
1:53 pm 13:53 Sunny 74 23.3 38 3.3 27 27 NNE 6 9 30.12 1020 10 16 0.00 0.00
2:53 pm 14:53 Sunny 74 23.3 39 3.9 28 28 VRB 3 6 30.10 1019 10 16 0.00 0.00
3:53 pm 15:53 Sunny 74 23.3 38 3.3 27 27 VRB 6 9 30.09 1019 10 16 0.00 0.00
4:53 pm 16:53 Mostly Cloudy 71 21.7 38 3.3 30 30 Calm 30.07 1018 10 16 0.00 0.00
5:53 pm 17:53 Sunny 70 21.1 39 3.9 32 32 N 9 15 30.06 1018 10 16 0.00 0.00
6:53 pm 18:53 Sunny 68 20 40 4.4 36 36 Calm 30.05 1018 10 16 0.00 0.00
7:53 pm 19:53 Sunny 64 17.8 44 6.7 48 48 Calm 30.04 1017 10 16 0.00 0.00
8:53 pm 20:53 Clear 62 16.7 47 8.3 58 58 Calm 30.05 1018 10 16 0.00 0.00
9:53 pm 21:53 Mostly Cloudy 62 16.7 46 7.8 56 56 Calm 30.05 1018 10 16 0.00 0.00
10:53 pm 22:53 Cloudy with Light Rain 61 16.1 48 8.9 63 63 N 5 7 30.00 1016 10 16 0.00 0.00
11:53 pm 23:53 Cloudy 58 14.4 50 10 75 75 Calm 29.95 1014 10 16 0.00 0.00

Powered by AerisWeather